KD0MAC Weather Reports


time (UTC)temp
F
wind
direction
speed
knots
gust
knots
rain 1hr
in
rain 24hr
in
rain mn
in
humidity
%
barometer
mb
20260507180140 75 264 7.8 13.0 0.00 0.00 0.00 29 1011.9
20260507175633 76 299 7.0 14.8 0.00 0.00 0.00 27 1011.9
20260507175135 74 12 3.5 14.8 0.00 0.00 0.00 30 1012.2
20260507174637 75 262 8.7 13.9 0.00 0.00 0.00 26 1012.2
20260507174134 75 328 3.5 12.2 0.00 0.00 0.00 28 1012.2
20260507173637 75 237 6.1 12.2 0.00 0.00 0.00 26 1012.2
20260507173135 75 282 6.1 10.4 0.00 0.00 0.00 27 1012.2
20260507172637 75 163 4.3 10.4 0.00 0.00 0.00 30 1012.5
20260507172133 75 20 3.5 6.1 0.00 0.00 0.00 32 1012.5
20260507171635 75 153 6.1 8.7 0.00 0.00 0.00 29 1012.5
20260507171134 74 20 3.5 13.0 0.00 0.00 0.00 34 1012.5
20260507170636 75 297 3.5 5.2 0.00 0.00 0.00 32 1012.5
20260507170134 74 179 2.6 6.1 0.00 0.00 0.00 38 1012.5
20260507165638 73 311 3.5 6.1 0.00 0.00 0.00 37 1012.5
20260507165134 72 87 3.5 6.1 0.00 0.00 0.00 35 1012.9
20260507164637 72 320 2.6 7.0 0.00 0.00 0.00 35 1012.9
20260507164136 72 165 3.5 9.6 0.00 0.00 0.00 39 1012.9
20260507163636 71 338 2.6 5.2 0.00 0.00 0.00 36 1012.9
20260507163136 70 131 3.5 5.2 0.00 0.00 0.00 39 1012.9
20260507162634 70 251 3.5 7.8 0.00 0.00 0.00 42 1013.2
20260507162133 70 64 3.5 7.8 0.00 0.00 0.00 41 1013.2
20260507161636 69 98 3.5 6.1 0.00 0.00 0.00 43 1013.2
20260507161136 68 24 2.6 6.1 0.00 0.00 0.00 41 1013.2
20260507160635 67 2 4.3 6.1 0.00 0.00 0.00 41 1013.2
20260507160137 67 120 2.6 5.2 0.00 0.00 0.00 45 1013.2
20260507155634 66 181 2.6 6.1 0.00 0.00 0.00 45 1013.2
20260507155134 65 175 2.6 5.2 0.00 0.00 0.00 48 1013.2
20260507154635 64 330 2.6 5.2 0.00 0.00 0.00 48 1013.5
20260507154137 64 75 3.5 6.1 0.00 0.00 0.00 47 1013.5
20260507153634 63 273 3.5 6.1 0.00 0.00 0.00 48 1013.5
20260507153135 62 183 2.6 6.1 0.00 0.00 0.00 50 1013.5
20260507152634 61 227 2.6 7.0 0.00 0.00 0.00 51 1013.5
20260507152134 60 33 1.7 9.6 0.00 0.00 0.00 54 1013.5
20260507151635 60 260 4.3 7.8 0.00 0.00 0.00 52 1013.5
20260507151135 59 29 3.5 6.1 0.00 0.00 0.00 55 1013.5
20260507150637 58 90 2.6 6.1 0.00 0.00 0.00 58 1013.5
20260507150135 57 153 3.5 6.1 0.00 0.00 0.00 57 1013.5
20260507145636 57 141 4.3 7.8 0.00 0.00 0.00 59 1013.5
20260507145137 56 176 3.5 7.8 0.00 0.00 0.00 59 1013.9
20260507144636 55 214 2.6 6.1 0.00 0.00 0.00 62 1013.9
20260507144137 55 71 2.6 8.7 0.00 0.00 0.00 63 1013.9
20260507143634 54 227 3.5 6.1 0.00 0.00 0.00 62 1013.9
20260507143136 53 210 3.5 6.1 0.00 0.00 0.00 63 1013.9
20260507142637 53 233 2.6 7.0 0.00 0.00 0.00 66 1013.9
20260507142136 52 296 3.5 7.0 0.00 0.00 0.00 65 1013.9
20260507141634 51 313 3.5 5.2 0.00 0.00 0.00 66 1013.9
20260507141135 51 180 3.5 7.0 0.00 0.00 0.00 68 1013.9
20260507140635 50 183 1.7 7.8 0.00 0.00 0.00 70 1013.9
20260507140135 49 141 2.6 6.1 0.00 0.00 0.00 71 1014.2
20260507135638 49 170 3.5 6.1 0.00 0.00 0.00 71 1013.9
20260507135138 48 151 1.7 7.0 0.00 0.00 0.00 73 1014.2
20260507134633 48 201 3.5 5.2 0.00 0.00 0.00 74 1014.2
20260507134133 47 273 2.6 4.3 0.00 0.00 0.00 74 1014.2
20260507133637 46 94 2.6 6.1 0.00 0.00 0.00 76 1013.9
20260507133139 46 172 3.5 6.1 0.00 0.00 0.00 77 1014.2
20260507132636 45 193 2.6 4.3 0.00 0.00 0.00 79 1014.2
20260507132136 44 211 2.6 5.2 0.00 0.00 0.00 81 1014.2
20260507131636 43 185 2.6 4.3 0.00 0.00 0.00 83 1014.2
20260507131137 42 139 2.6 5.2 0.00 0.00 0.00 84 1014.2
20260507130634 42 184 2.6 6.1 0.00 0.00 0.00 86 1014.6
20260507130137 41 147 4.3 9.6 0.00 0.00 0.00 88 1014.2
20260507125637 40 228 5.2 9.6 0.00 0.00 0.00 89 1014.2
20260507125137 39 254 4.3 8.7 0.00 0.00 0.00 90 1014.6
20260507124635 39 123 5.2 8.7 0.00 0.00 0.00 90 1014.6
20260507124135 38 133 6.1 8.7 0.00 0.00 0.00 91 1014.6
20260507123637 38 84 7.8 13.9 0.00 0.00 0.00 91 1014.6
20260507123135 37 166 9.6 13.9 0.00 0.00 0.00 92 1014.6
20260507122636 37 99 7.8 10.4 0.00 0.00 0.00 93 1014.6
20260507122136 37 201 7.0 8.7 0.00 0.00 0.00 93 1014.6
20260507121636 36 135 9.6 12.2 0.00 0.00 0.00 93 1014.6
20260507121133 36 146 8.7 13.9 0.00 0.00 0.00 93 1014.6
20260507120637 36 349 5.2 8.7 0.00 0.00 0.00 93 1014.6
20260507120012 35 167 8.7 12.2 0.00 0.00 0.00 93 1014.6
20260507115316 35 129 6.1 9.6 0.00 0.00 0.00 93 1014.9
20260507114634 36 162 9.6 14.8 0.00 0.00 0.00 93 1014.9
20260507114133 36 238 12.2 14.8 0.00 0.00 0.00 93 1014.9
20260507113633 36 135 10.4 12.2 0.00 0.00 0.00 94 1014.9
20260507113135 35 195 4.3 14.8 0.00 0.00 0.00 94 1014.9
20260507112634 35 183 7.8 13.0 0.00 0.00 0.00 94 1014.9
20260507112134 35 99 6.1 11.3 0.00 0.00 0.00 94 1014.9
20260507111633 35 71 6.1 9.6 0.00 0.00 0.00 94 1014.9
20260507111134 36 136 8.7 10.4 0.00 0.00 0.00 94 1015.2
20260507110633 36 186 7.0 8.7 0.00 0.00 0.00 94 1015.2
20260507110134 36 133 7.0 13.0 0.00 0.00 0.00 94 1015.2
20260507105633 36 132 7.8 13.0 0.00 0.00 0.00 94 1015.2
20260507105133 36 92 6.1 7.0 0.00 0.00 0.00 94 1015.2
20260507104634 36 158 3.5 11.3 0.00 0.00 0.00 94 1015.2
20260507104134 36 247 7.0 11.3 0.00 0.00 0.00 94 1015.6
20260507103633 36 141 6.1 11.3 0.00 0.00 0.00 94 1015.6
20260507103134 36 126 8.7 11.3 0.00 0.00 0.00 93 1015.6
20260507102633 36 178 7.8 13.9 0.00 0.00 0.00 93 1015.6
20260507102136 36 145 6.1 13.9 0.00 0.00 0.00 93 1015.9
20260507101633 36 293 8.7 13.9 0.00 0.00 0.00 93 1015.9
20260507101134 36 169 6.1 11.3 0.00 0.00 0.00 93 1015.9
20260507100635 36 115 8.7 8.7 0.00 0.00 0.00 93 1015.9
20260507100134 36 82 5.2 7.8 0.00 0.00 0.00 92 1015.9
20260507095633 36 127 4.3 7.8 0.00 0.00 0.00 92 1016.3
20260507095134 37 141 3.5 10.4 0.00 0.00 0.00 92 1016.3
20260507094633 37 94 6.1 8.7 0.00 0.00 0.00 92 1015.9
20260507094133 37 335 4.3 8.7 0.00 0.00 0.00 92 1015.9
20260507093635 37 234 4.3 7.8 0.00 0.00 0.00 92 1016.3
20260507093134 37 126 5.2 8.7 0.00 0.00 0.00 92 1016.3
20260507092633 37 149 5.2 8.7 0.00 0.00 0.00 92 1015.9
20260507092135 37 193 4.3 8.7 0.00 0.00 0.00 92 1015.9
20260507091634 37 127 7.8 8.7 0.00 0.00 0.00 91 1015.9
20260507091133 37 35 4.3 5.2 0.00 0.00 0.00 91 1016.3
20260507090634 38 151 4.3 5.2 0.00 0.00 0.00 91 1016.3
20260507090133 38 57 3.5 6.1 0.00 0.00 0.00 91 1016.6
20260507085635 38 113 5.2 6.1 0.00 0.00 0.00 91 1016.6
20260507085133 38 65 3.5 7.0 0.00 0.00 0.00 91 1016.6
20260507084634 38 127 4.3 8.7 0.00 0.00 0.00 91 1016.6
20260507084134 38 72 4.3 8.7 0.00 0.00 0.00 90 1016.6
20260507083635 38 165 6.1 8.7 0.00 0.00 0.00 91 1016.9
20260507083134 38 143 4.3 7.8 0.00 0.00 0.00 90 1016.9
20260507082633 38 296 1.7 7.0 0.00 0.00 0.00 91 1016.9
20260507082133 39 347 2.6 7.0 0.00 0.00 0.00 91 1016.9
20260507081633 38 78 4.3 7.8 0.00 0.00 0.00 91 1016.9
20260507081133 39 215 4.3 9.6 0.00 0.00 0.00 91 1016.9
20260507080635 39 25 6.1 8.7 0.00 0.00 0.00 91 1016.9
20260507080133 38 93 1.7 9.6 0.00 0.00 0.00 92 1016.9
20260507075634 38 169 3.5 12.2 0.00 0.00 0.00 92 1016.9
20260507075134 38 314 6.1 12.2 0.00 0.00 0.00 92 1016.9
20260507074633 38 154 5.2 9.6 0.00 0.00 0.00 93 1016.9
20260507074137 38 176 2.6 7.0 0.00 0.00 0.00 93 1017.3
20260507073633 38 281 2.6 7.0 0.00 0.00 0.00 93 1017.3
20260507073133 38 223 4.3 5.2 0.00 0.00 0.00 93 1017.6
20260507072633 38 160 1.7 7.8 0.00 0.00 0.00 93 1017.6
20260507072133 38 90 1.7 5.2 0.00 0.00 0.00 92 1017.6
20260507071633 38 91 0.9 4.3 0.00 0.00 0.00 92 1017.9
20260507071134 38 244 2.6 6.1 0.00 0.00 0.00 92 1017.9
20260507070635 38 120 2.6 6.1 0.00 0.00 0.00 93 1017.9
20260507070133 39 152 3.5 5.2 0.00 0.00 0.00 93 1017.9
20260507065634 39 157 4.3 6.1 0.00 0.00 0.00 93 1017.9
20260507065136 39 53 3.5 6.1 0.00 0.00 0.00 93 1017.9
20260507064636 39 193 3.5 6.1 0.00 0.00 0.00 93 1017.9
20260507064133 39 183 2.6 6.1 0.00 0.00 0.00 93 1018.3
20260507063633 39 166 1.7 6.1 0.00 0.00 0.00 93 1018.3
20260507063134 39 183 3.5 6.1 0.00 0.00 0.00 93 1017.9
20260507062634 39 98 1.7 5.2 0.00 0.00 0.00 93 1018.3
20260507062133 39 148 3.5 5.2 0.00 0.00 0.00 93 1018.3
20260507061635 39 46 1.7 3.5 0.00 0.00 0.00 93 1018.3
20260507061134 39 173 0.9 3.5 0.00 0.00 0.00 93 1018.3
20260507060633 39 138 1.7 6.1 0.00 0.00 0.00 93 1018.3
20260507060136 39 183 1.7 5.2 0.00 0.00 0.00 93 1018.3
20260507055633 39 152 2.6 6.1 0.00 0.00 0.00 93 1018.3
20260507055133 39 197 1.7 3.5 0.00 0.00 0.00 93 1018.6
20260507054634 39 151 1.7 3.5 0.00 0.00 0.00 92 1018.6
20260507054134 39 77 2.6 4.3 0.00 0.00 0.00 92 1018.6
20260507053634 39 165 2.6 3.5 0.00 0.00 0.00 92 1018.6
20260507053133 40 156 1.7 4.3 0.00 0.00 0.00 92 1018.6
20260507052633 40 148 1.7 4.3 0.00 0.00 0.00 92 1018.6
20260507052133 40 98 0.9 3.5 0.00 0.00 0.00 92 1018.6
20260507051634 40 112 0.9 2.6 0.00 0.00 0.00 92 1018.6
20260507051134 40 162 0.9 3.5 0.00 0.00 0.00 92 1018.6
20260507050633 40 161 1.7 4.3 0.00 0.00 0.00 92 1018.6
20260507050133 40 98 1.7 2.6 0.00 0.00 0.28 91 1018.6
20260507045633 40 172 0.9 3.5 0.00 0.00 0.28 91 1018.6
20260507045133 40 99 1.7 3.5 0.00 0.00 0.28 91 1018.6
20260507044634 40 103 0.9 3.5 0.00 0.00 0.28 91 1018.6
20260507044133 40 208 0.9 3.5 0.00 0.00 0.28 91 1018.6
20260507043634 41 113 0.9 3.5 0.00 0.00 0.28 90 1018.6
20260507043133 41 85 0.0 2.6 0.00 0.00 0.28 90 1019.0
20260507042634 41 104 0.9 3.5 0.00 0.00 0.28 90 1019.0
20260507042135 41 131 0.9 2.6 0.00 0.00 0.28 90 1019.0
20260507041633 41 96 1.7 1.7 0.00 0.00 0.28 90 1019.0
20260507041134 42 129 1.7 3.5 0.00 0.00 0.28 90 1019.0
20260507040635 42 139 0.9 5.2 0.00 0.00 0.28 90 1019.0
20260507040133 42 157 1.7 3.5 0.00 0.00 0.28 90 1019.0
20260507035633 42 151 0.9 1.7 0.00 0.00 0.28 90 1019.0
20260507035136 42 179 0.0 4.3 0.00 0.00 0.28 90 1019.0
20260507034633 42 111 0.9 4.3 0.00 0.00 0.28 90 1019.0
20260507034133 43 100 0.9 3.5 0.00 0.00 0.28 89 1019.0
20260507033634 43 81 1.7 3.5 0.00 0.00 0.28 89 1019.0
20260507033134 43 10 1.7 3.5 0.00 0.00 0.28 89 1019.0
20260507032634 43 344 0.9 2.6 0.00 0.00 0.28 89 1019.0
20260507032133 43 58 0.9 2.6 0.00 0.00 0.28 89 1019.0
20260507031634 43 33 0.9 2.6 0.00 0.00 0.28 88 1019.0
20260507031133 43 85 0.0 2.6 0.00 0.00 0.28 88 1019.0
20260507030633 44 76 0.0 1.7 0.00 0.00 0.28 87 1019.0
20260507030134 44 1 0.9 3.5 0.00 0.00 0.28 87 1019.0
20260507025634 44 125 1.7 3.5 0.00 0.00 0.28 87 1018.6
20260507025135 45 17 0.9 2.6 0.00 0.00 0.28 86 1018.6
20260507024633 45 285 0.9 2.6 0.00 0.00 0.28 85 1018.6
20260507024134 45 108 0.0 0.9 0.00 0.00 0.28 84 1018.6
20260507023634 45 355 0.9 2.6 0.00 0.00 0.28 84 1018.6
20260507023134 45 272 2.6 4.3 0.00 0.00 0.28 84 1018.6
20260507022633 46 81 0.0 4.3 0.00 0.00 0.28 84 1018.6
20260507022134 46 9 0.9 2.6 0.00 0.00 0.28 84 1018.6
20260507021634 46 301 0.9 2.6 0.00 0.00 0.28 84 1018.6
20260507021133 46 184 0.9 2.6 0.00 0.00 0.28 84 1018.6
20260507020633 46 239 0.0 2.6 0.00 0.00 0.28 83 1018.6
20260507020133 46 75 0.9 3.5 0.00 0.00 0.28 83 1018.6
20260507015634 46 89 0.9 3.5 0.00 0.00 0.28 83 1018.6
20260507015134 46 312 0.9 2.6 0.00 0.00 0.28 82 1018.6
20260507014635 47 236 0.9 3.5 0.00 0.00 0.28 81 1018.3
20260507014133 47 127 1.7 2.6 0.00 0.00 0.28 80 1018.3
20260507013634 47 214 1.7 3.5 0.00 0.00 0.28 79 1018.3
20260507013134 47 39 1.7 4.3 0.00 0.00 0.28 78 1018.3
20260507012634 47 326 1.7 4.3 0.00 0.00 0.28 79 1018.3
20260507012133 48 205 1.7 3.5 0.00 0.00 0.28 78 1018.3
20260507011635 48 358 1.7 5.2 0.00 0.00 0.28 77 1017.9
20260507011135 49 32 0.9 2.6 0.00 0.00 0.28 76 1018.3
20260507010633 49 61 0.9 2.6 0.00 0.00 0.28 76 1018.3
20260507010133 49 84 0.9 5.2 0.00 0.00 0.28 74 1018.3
20260507005634 49 75 2.6 4.3 0.00 0.00 0.28 72 1018.3
20260507005133 50 284 2.6 7.0 0.00 0.00 0.28 72 1018.3
20260507004633 50 261 2.6 7.0 0.00 0.00 0.28 72 1018.3
20260507004133 50 306 3.5 8.7 0.00 0.00 0.28 71 1018.3
20260507003634 51 80 3.5 5.2 0.00 0.00 0.28 72 1018.3
20260507003134 51 305 2.6 5.2 0.00 0.00 0.28 70 1018.3
20260507002634 51 353 0.9 6.1 0.00 0.00 0.28 73 1018.3
20260507002136 50 321 1.7 6.1 0.00 0.00 0.28 72 1018.3
20260507001634 50 344 1.7 7.0 0.00 0.00 0.28 72 1018.3
20260507001135 50 98 1.7 7.0 0.00 0.00 0.28 73 1018.3
20260507000634 50 191 5.2 7.8 0.00 0.00 0.28 73 1018.3
20260507000133 50 310 2.6 7.0 0.00 0.00 0.28 75 1018.3
20260506235633 49 59 4.3 7.0 0.00 0.00 0.28 74 1018.3
20260506235133 49 291 2.6 7.0 0.00 0.00 0.28 77 1018.3
20260506234633 49 295 4.3 7.0 0.00 0.00 0.28 77 1018.3
20260506234134 49 331 3.5 5.2 0.00 0.00 0.28 78 1018.3
20260506233633 48 47 3.5 6.1 0.00 0.00 0.28 78 1018.3
20260506233133 48 276 3.5 7.8 0.00 0.00 0.28 79 1018.3
20260506232633 48 317 5.2 11.3 0.00 0.00 0.28 78 1018.3
20260506232133 48 281 7.0 12.2 0.00 0.00 0.28 75 1018.3
20260506231634 49 300 7.8 12.2 0.00 0.00 0.28 73 1018.3
20260506231133 50 284 7.0 9.6 0.00 0.00 0.28 71 1018.3
20260506230634 52 294 5.2 9.6 0.00 0.00 0.28 67 1018.3
20260506230134 54 334 2.6 4.3 0.00 0.00 0.28 59 1018.3
20260506225633 54 291 3.5 5.2 0.00 0.00 0.28 57 1017.9
20260506225133 55 280 0.9 3.5 0.00 0.00 0.28 58 1017.9
20260506224634 55 239 1.7 3.5 0.00 0.00 0.28 57 1017.9
20260506224133 55 4 0.9 5.2 0.00 0.00 0.28 56 1017.9
20260506223633 55 329 2.6 5.2 0.00 0.00 0.28 56 1017.9
20260506223134 55 295 2.6 4.3 0.00 0.00 0.28 57 1017.9
20260506222634 55 60 0.9 2.6 0.00 0.00 0.28 60 1017.9
20260506222133 54 167 1.7 4.3 0.00 0.00 0.28 62 1017.9
20260506221634 54 281 2.6 4.3 0.00 0.00 0.28 66 1018.3
20260506221133 54 323 2.6 3.5 0.00 0.00 0.28 60 1018.3
20260506220636 54 110 0.9 2.6 0.00 0.00 0.28 62 1018.3
20260506220133 54 12 0.9 1.7 0.00 0.00 0.28 60 1018.3
20260506215633 54 261 1.7 3.5 0.00 0.00 0.28 61 1018.3
20260506215134 55 61 0.0 2.6 0.00 0.00 0.28 59 1018.3
20260506214636 54 168 0.9 2.6 0.00 0.00 0.28 57 1018.3
20260506214136 54 182 1.7 4.3 0.00 0.00 0.28 61 1018.3
20260506213633 53 104 2.6 5.2 0.00 0.00 0.28 60 1018.3
20260506213133 54 279 1.7 5.2 0.00 0.00 0.28 59 1018.6
20260506212634 54 318 2.6 5.2 0.00 0.00 0.28 58 1018.6
20260506212133 54 298 0.9 4.3 0.00 0.00 0.28 61 1018.6
20260506211635 54 148 0.9 4.3 0.00 0.00 0.28 61 1018.6
20260506211133 53 269 2.6 7.0 0.00 0.00 0.28 60 1018.6
20260506210633 53 289 2.6 6.1 0.00 0.00 0.28 63 1018.6
20260506210134 53 339 4.3 5.2 0.00 0.00 0.28 63 1018.6
20260506205634 53 10 1.7 5.2 0.00 0.00 0.28 62 1019.0
20260506205134 53 257 2.6 5.2 0.00 0.00 0.28 62 1019.0
20260506204633 54 149 2.6 5.2 0.00 0.00 0.28 58 1019.0
20260506203647 55 43 1.7 2.6 0.00 0.00 0.28 59 1019.0
20260506203135 55 188 0.9 5.2 0.00 0.00 0.28 58 1019.0
20260506202633 55 297 1.7 2.6 0.00 0.00 0.28 60 1019.0
20260506202135 55 353 1.7 3.5 0.00 0.00 0.28 59 1019.0
20260506201637 55 177 1.7 3.5 0.00 0.00 0.28 59 1019.0
20260506201133 55 112 0.9 2.6 0.00 0.00 0.28 60 1019.0
20260506200633 56 147 0.9 7.0 0.00 0.00 0.28 60 1019.0
20260506200134 55 181 5.2 7.0 0.00 0.00 0.28 59 1019.0
20260506195634 55 154 3.5 5.2 0.00 0.00 0.28 62 1019.0
20260506195134 55 96 1.7 5.2 0.00 0.00 0.28 62 1019.3
20260506194633 55 155 2.6 5.2 0.00 0.00 0.28 62 1019.3
20260506194134 55 138 1.7 6.1 0.00 0.00 0.28 64 1019.3
20260506193635 54 242 2.6 7.0 0.00 0.00 0.28 62 1019.3
20260506193133 53 109 2.6 4.3 0.00 0.00 0.28 67 1019.3
20260506192634 52 196 3.5 4.3 0.00 0.00 0.28 66 1019.3
20260506192134 52 103 3.5 6.1 0.00 0.00 0.28 68 1019.3
20260506191633 52 139 3.5 5.2 0.00 0.00 0.28 70 1019.3
20260506191135 52 125 2.6 5.2 0.00 0.00 0.28 68 1019.3
20260506190633 51 187 0.9 4.3 0.00 0.00 0.28 71 1019.3
20260506190136 51 190 2.6 3.5 0.00 0.00 0.28 71 1019.6
20260506185148 51 67 1.7 3.5 0.00 0.00 0.28 73 1019.6
20260506184643 50 104 1.7 3.5 0.00 0.00 0.28 73 1019.6
20260506184134 50 150 1.7 3.5 0.00 0.00 0.28 75 1019.6
20260506183633 50 80 2.6 3.5 0.00 0.00 0.28 73 1019.6
20260506183133 49 161 1.7 3.5 0.00 0.00 0.28 76 1020.0
20260506182636 49 148 1.7 4.3 0.00 0.00 0.28 77 1020.0
20260506182135 49 127 1.7 3.5 0.00 0.00 0.28 78 1020.0
20260506181635 48 151 0.9 3.5 0.00 0.00 0.28 81 1020.0
20260506181134 48 96 1.7 3.5 0.00 0.00 0.28 79 1020.0
20260506180633 48 138 1.7 2.6 0.00 0.00 0.28 80 1020.0